Hourly Data Report for October 17, 2014

All times are specified in Local Standard Time (LST). Add 1 hour to adjust for Daylight Saving Time where and when it is observed.

ST LEONARD CS
NEW BRUNSWICK

47°09'28.050" N
67°49'55.014" W
245.00 m
810I001
71019
WIY

Download Data

Hourly Data (October 2014)
Hourly Data Report for October 17, 2014
Temp Definition
°C
Dew Point Temp Definition
°C
Rel Hum Definition
%
Wind Dir Definition
10's deg

Wind Spd Definition
km/h
Visibility Definition
km
Stn Press Definition
kPa
Hmdx Definition


Wind Chill Definition


Weather Definition


TIME
00:00 12.5 11.8 96 11 3   98.28     LegendNANA
01:00 12.8 12.2 96 11 3   98.19     LegendNANA
02:00 13.1 12.4 95 11 3   98.12     LegendNANA
03:00 13.3 12.8 96 10 3   98.01     LegendNANA
04:00 13.9 13.3 96 10 3   97.87     LegendNANA
05:00 14.6 14.0 96 10 4   97.74     LegendNANA
06:00 15.6 15.0 96 10 4   97.58     LegendNANA
07:00 16.3 15.6 96 11 9   97.44     LegendNANA
08:00 16.8 16.2 96 14 6   97.38     LegendNANA
09:00 17.1 16.6 97 14 6   97.30     LegendNANA
10:00 17.5 16.9 97 10 4   97.06     LegendNANA
11:00 17.4 16.9 97 11 5   96.75     LegendNANA
12:00 17.6 17.0 96 15 11   96.64     LegendNANA
13:00 15.6 14.8 95 21 5   96.80     LegendNANA
14:00 16.0 14.9 93 22 3   96.78     LegendNANA
15:00 16.4 14.6 89 21 3   96.77     LegendNANA
16:00 16.3 13.9 86 20 4   96.77     LegendNANA
17:00 14.5 13.3 93 23 3   96.87     LegendNANA
18:00 13.4 12.3 93 20 3   96.98     LegendNANA
19:00 12.5 11.6 94 19 3   97.08     LegendNANA
20:00 12.0 11.3 96 18 3   97.12     LegendNANA
21:00 12.0 11.3 95 19 3   97.19     LegendNANA
22:00 11.7 10.7 94 20 3   97.22     LegendNANA
23:00 11.4 10.2 92 19 4   97.24     LegendNANA

Notes on Data Quality.

Legend

  • E = Estimated
  • M = Missing
  • NA = Not Available
  • ‡ = Partner data that is not subject to review by the National Climate Archives
Date modified: